Miscellaneous Local Product
Issued by NWS Hastings, NE

Home | Current Version | Previous Version | Graphics & Text | Print | Product List | Glossary On
Versions: 1 2 3 4 5 6 7 8 9 10 11 12 13 14 15 16 17 18 19 20 21 22 23 24 25 26 27 28 29 30 31 32 33 34 35 36 37 38 39 40 41 42 43 44 45 46 47 48 49 50
000
AXUS43 KGID 231902
MISGRI

GID CWA HOURLY WEATHER ROUNDUP
NATIONAL WEATHER SERVICE HASTINGS NE
200 PM CDT TUE MAY 23 2017

NOTE: "FAIR" INDICATES FEW OR NO CLOUDS BELOW 12,000 FEET WITH NO
SIGNIFICANT WEATHER AND/OR OBSTRUCTIONS TO VISIBILITY.

...SOUTH CENTRAL NEBRASKA...

CITY           SKY/WX    TMP DP  RH WIND       PRES   REMARKS
GRAND ISLAND   CLOUDY    53  42  66 N23G30    29.95F
HASTINGS       CLOUDY    57  43  59 NW22G30   29.96S
KEARNEY        CLOUDY    55  37  50 N23G31    29.98F
ORD            CLOUDY    51  38  60 N20G29    29.96F
YORK           PTSUNNY   57  41  54 NW24G32   29.91F
AURORA         CLOUDY    56  40  55 N21G29    29.93F
LEXINGTON      CLOUDY    57  41  55 N17G23    29.99F
HOLDREGE       CLOUDY    54  37  53 N18G29    29.98F
HEBRON         CLOUDY    59  43  55 NW18G31   29.90S

...NEBRASKA PANHANDLE...

CITY           SKY/WX    TMP DP  RH WIND       PRES   REMARKS
CHADRON        CLOUDY    58  39  49 N12G21    30.09F
ALLIANCE       MOSUNNY   59  36  42 NW20G29   30.08F
SCOTTSBLUFF    CLOUDY    59  32  36 N18G24    30.11F
SIDNEY         CLOUDY    55  37  50 N17G28    30.11F

...WESTERN AND NORTH CENTRAL NEBRASKA...

CITY           SKY/WX    TMP DP  RH WIND       PRES   REMARKS
VALENTINE      CLOUDY    56  34  43 N24G35    30.01F
AINSWORTH      CLOUDY    50  42  71 N18G24    30.01F
ONEILL         CLOUDY    52  39  60 N22G28    29.97S
BROKEN BOW     CLOUDY    52  40  63 N20G28    29.99F
IMPERIAL       MOSUNNY   61  37  41 N22G33    30.05F
NORTH PLATTE   CLOUDY    57  35  43 N24G35    30.02F
MCCOOK         CLOUDY    66  34  30 N32G44    30.00F

...EASTERN NEBRASKA...

CITY           SKY/WX    TMP DP  RH WIND       PRES   REMARKS
NORFOLK        CLOUDY    53  41  63 NW22      29.89F
SO SIOUX CITY  LGT RAIN  54  49  83 N10       29.87F
TEKAMAH        CLOUDY    57  46  66 N18       29.86F
ALBION         LGT RAIN  51  45  79 N13G18    29.94R
OMAHA EPPLEY   CLOUDY    58  42  55 N17       29.85F
OFFUTT AFB     LGT RAIN  59  45  58 NW15G22   29.84F
MILLARD        CLOUDY    57  46  66 NW15G22   29.86S
LINCOLN        PTSUNNY   59  44  57 NW9       29.88F
NEBRASKA CITY  CLOUDY    59  40  50 N13       29.86F
BEATRICE       LGT RAIN  54  49  82 NW10      29.88S
FALLS CITY     CLOUDY    62  46  55 NW16      29.85F

...NORTHERN KANSAS...

CITY           SKY/WX    TMP DP  RH WIND       PRES   REMARKS
GOODLAND       CLOUDY    60  38  43 N24G32    30.05F
HILL CITY      CLOUDY    63  40  42 N23G30    29.99F
NORTON         CLOUDY    55  34  44 N18G29    29.98S
PHILLIPSBURG   CLOUDY    61  39  44 N20G32    29.98S
SMITH CENTER   CLOUDY    61  43  51 NW30      29.95F
HAYS           CLOUDY    63  39  41 N20G25    29.96F
RUSSELL        CLOUDY    62  42  47 N22G32    29.94F
CONCORDIA      LGT RAIN  58  48  69 NW15G23   29.90F
SALINA         CLOUDY    65  47  52 NW15      29.90F
TOPEKA         PTSUNNY   65  48  54 N9        29.85F



USA.gov is the U.S. government's official web portal to all federal, state and local government web resources and services.